Total_Precipitation_Accumulation
2.21 2.93 3.56 4.12 4.80 5.57 6.15 6.04 5.44 4.98 4.48 4.02 3.51 3.45 3.24 2.93 2.65 2.38 2.12 2.07 1.99 1.84 1.93 1.84 1.95 1.69 1.75 1.82 1.81 2.06 2.19 2.09 2.08 2.43 2.51 2.07 1.69 1.72 1.74 1.74 1.99 2.03 2.04
2.20 2.95 3.54 3.76 3.81 4.08 4.33 3.82 3.62 3.64 3.34 3.13 3.09 3.03 2.85 2.53 2.29 2.13 2.10 1.75 1.75 1.74 1.67 1.92 1.80 1.73 1.89 1.89 1.90 2.06 2.16 2.08 2.13 2.38 2.69 2.43 2.37 2.05 1.53 1.78 1.92 1.93 2.14
2.31 2.82 2.99 3.01 2.92 2.88 2.86 2.62 2.57 2.89 2.91 2.92 2.95 2.96 2.92 2.73 2.45 2.11 2.07 1.73 1.58 1.62 1.71 1.72 1.81 1.89 1.62 1.84 1.98 1.96 2.05 2.12 2.07 2.09 2.45 2.46 2.44 2.14 1.65 1.60 1.68 1.86 2.16
2.31 2.28 1.85 1.72 1.87 1.96 2.08 2.34 2.42 2.56 2.51 2.63 2.55 2.46 2.28 2.11 1.98 1.89 1.93 1.92 1.71 1.63 1.55 1.59 1.83 1.95 1.71 1.91 1.56 1.68 1.96 2.11 1.97 2.02 1.91 1.89 2.04 2.20 2.13 1.84 1.67 1.76 1.92
1.36 1.18 1.00 1.03 1.27 1.53 1.78 2.19 2.29 2.34 2.28 2.26 2.32 2.44 2.38 2.37 2.20 2.08 2.23 2.20 2.18 1.95 1.61 1.60 1.82 1.97 1.92 1.98 1.84 2.04 1.87 1.79 1.78 1.85 1.90 1.92 1.86 1.75 2.01 2.13 1.99 1.85 1.65
0.74 0.75 0.81 0.98 1.22 1.39 1.50 1.77 1.93 2.11 2.16 2.21 2.31 2.29 2.31 2.46 2.35 2.20 2.09 2.00 2.04 1.99 1.85 1.82 2.03 2.02 1.99 2.08 2.03 2.03 1.90 1.86 1.86 1.78 1.77 2.04 2.04 1.90 2.03 1.93 1.90 1.83 1.48
0.62 0.77 0.85 1.03 1.12 1.23 1.26 1.40 1.49 1.69 1.88 1.99 2.08 2.13 2.21 2.32 2.26 2.22 2.09 2.00 1.85 1.78 1.87 1.96 2.16 2.06 2.01 1.97 2.05 2.05 2.01 2.02 2.06 1.97 1.81 1.83 1.89 1.93 1.95 1.95 1.71 1.60 1.45
0.54 0.59 0.70 0.77 0.82 0.97 1.20 1.37 1.35 1.37 1.43 1.50 1.68 1.85 1.90 1.97 1.99 2.16 2.00 1.89 1.79 1.74 1.84 1.93 1.87 1.85 1.89 1.78 2.00 1.92 1.88 1.95 1.98 1.90 2.18 2.09 1.79 1.89 1.91 2.01 2.15 1.98 1.80
0.61 0.57 0.58 0.73 0.78 0.74 0.87 1.07 1.14 1.17 1.22 1.28 1.41 1.49 1.54 1.68 1.87 1.85 1.69 1.56 1.64 1.72 1.74 1.68 1.70 1.73 1.76 1.87 2.06 1.97 1.95 2.08 1.93 1.91 2.27 2.13 1.82 1.80 1.83 1.92 2.17 2.45 2.21
0.53 0.63 0.62 0.68 0.73 0.69 0.81 0.95 1.09 1.16 1.18 1.19 1.24 1.19 1.33 1.45 1.62 1.66 1.61 1.52 1.46 1.60 1.73 1.73 1.73 1.72 1.66 1.75 1.95 1.86 1.98 2.08 2.04 2.05 2.13 2.09 1.93 1.94 1.96 2.04 2.21 2.47 2.46
0.48 0.60 0.62 0.64 0.62 0.59 0.68 0.83 1.00 1.10 1.04 1.07 1.12 1.20 1.29 1.46 1.53 1.49 1.52 1.51 1.51 1.61 1.68 1.74 1.82 1.79 1.76 1.84 1.93 1.83 1.98 2.03 2.13 2.09 2.05 2.02 2.22 2.22 2.04 2.12 2.17 2.37 2.58
0.54 0.58 0.61 0.61 0.53 0.55 0.65 0.75 0.93 1.07 1.10 1.09 1.16 1.26 1.32 1.41 1.48 1.42 1.49 1.63 1.66 1.71 1.73 1.79 1.91 1.86 1.90 1.99 1.89 1.87 1.96 2.02 2.04 2.14 2.31 2.25 2.30 2.23 2.12 2.23 2.26 2.37 2.64
0.57 0.59 0.69 0.64 0.56 0.56 0.63 0.78 1.03 1.24 1.40 1.42 1.37 1.33 1.28 1.35 1.45 1.50 1.55 1.65 1.76 1.83 1.80 1.75 1.79 1.91 2.08 2.12 1.95 1.89 1.88 1.84 1.78 1.92 2.17 2.42 2.75 2.58 2.38 2.29 2.24 2.30 2.40
0.53 0.63 0.73 0.78 0.82 0.80 0.83 0.97 1.16 1.23 1.35 1.32 1.28 1.33 1.35 1.46 1.60 1.65 1.69 1.73 1.74 1.80 1.88 1.90 1.86 1.86 1.91 1.92 1.93 1.99 1.98 1.94 1.81 1.81 1.91 2.05 2.29 2.48 2.60 2.38 2.21 2.27 2.40
0.66 0.70 0.79 0.85 0.91 0.97 0.96 0.97 1.07 1.10 1.22 1.50 1.61 1.72 1.72 1.74 1.85 1.91 1.86 1.90 1.90 1.87 2.04 2.10 2.06 2.01 1.95 1.81 1.96 2.10 2.00 2.04 1.95 1.89 1.84 1.69 1.80 1.97 2.16 2.09 2.34 2.45 2.41
0.76 0.83 0.88 0.91 0.95 1.00 1.09 1.15 1.16 1.19 1.39 1.81 2.06 2.16 2.19 2.23 2.27 2.30 2.29 2.31 2.26 2.37 2.42 2.30 2.23 2.17 1.94 2.05 2.06 2.05 2.06 2.14 2.08 1.98 1.91 1.74 1.63 1.66 1.78 1.84 2.02 2.24 2.28
0.72 0.79 0.93 1.04 1.04 1.05 1.11 1.21 1.31 1.38 1.53 1.82 2.01 2.12 2.22 2.32 2.44 2.48 2.52 2.53 2.56 2.56 2.56 2.59 2.51 2.39 2.40 2.35 2.02 1.95 1.94 2.02 2.03 2.10 2.13 1.78 1.51 1.69 1.65 1.75 1.77 1.73 1.84
0.78 0.89 0.92 1.05 1.13 1.21 1.32 1.52 1.68 1.84 1.91 2.04 2.23 2.34 2.30 2.31 2.39 2.42 2.37 2.39 2.51 2.54 2.49 2.40 2.29 2.24 2.19 2.15 1.88 1.76 1.65 1.75 1.80 1.82 1.84 1.82 1.68 1.60 1.64 1.64 1.54 1.45 1.47
0.92 1.10 1.24 1.27 1.35 1.46 1.60 1.75 1.99 2.11 2.14 2.15 2.33 2.46 2.55 2.62 2.52 2.41 2.43 2.48 2.52 2.38 2.28 2.18 2.16 2.13 2.11 2.09 1.87 1.75 1.59 1.59 1.57 1.59 1.62 1.66 1.57 1.61 1.57 1.47 1.42 1.37 1.32
0.99 1.10 1.30 1.44 1.49 1.64 1.75 1.81 1.91 2.03 2.15 2.14 2.21 2.37 2.47 2.64 2.74 2.68 2.69 2.65 2.56 2.44 2.37 2.29 2.30 2.28 2.28 2.37 2.09 1.91 1.75 1.74 1.73 1.79 1.78 1.74 1.62 1.59 1.47 1.35 1.33 1.23 1.15
0.99 1.03 1.11 1.27 1.38 1.48 1.57 1.74 1.84 1.84 1.94 1.98 1.97 2.13 2.35 2.52 2.64 2.77 2.78 2.79 2.71 2.58 2.39 2.24 2.19 2.18 2.25 2.37 2.20 2.01 1.80 1.79 1.91 1.98 2.04 1.99 1.87 1.55 1.38 1.24 1.16 1.14 1.24
1.02 1.05 1.12 1.20 1.30 1.44 1.67 1.86 1.91 1.88 1.88 1.93 2.04 2.17 2.37 2.46 2.47 2.53 2.60 2.70 2.67 2.61 2.52 2.29 2.10 2.04 1.99 1.93 1.92 1.77 1.66 1.70 1.80 1.92 2.05 2.06 1.96 1.70 1.52 1.35 1.24 1.23 1.20
1.10 1.07 1.12 1.27 1.46 1.64 1.84 2.05 2.07 2.06 2.07 2.11 2.18 2.26 2.36 2.43 2.48 2.47 2.46 2.46 2.42 2.31 2.22 2.10 2.01 1.98 1.95 1.87 1.72 1.52 1.44 1.45 1.50 1.64 1.96 2.07 1.96 1.76 1.51 1.39 1.33 1.21 1.09
1.15 1.13 1.14 1.24 1.45 1.56 1.66 1.85 1.97 2.01 2.14 2.11 2.03 2.00 2.02 2.08 2.16 2.21 2.24 2.24 2.19 2.12 2.03 1.95 1.92 1.86 1.83 1.73 1.63 1.55 1.41 1.35 1.35 1.38 1.57 1.67 1.64 1.49 1.37 1.27 1.15 1.04 1.02
1.23 1.23 1.26 1.32 1.38 1.43 1.48 1.58 1.70 1.84 2.04 2.14 2.09 2.08 2.07 2.06 2.08 2.15 2.21 2.07 2.01 2.03 1.92 1.80 1.86 1.86 1.72 1.68 1.64 1.53 1.44 1.37 1.40 1.38 1.41 1.50 1.58 1.57 1.50 1.46 1.35 1.23 1.15
1.29 1.34 1.38 1.40 1.39 1.40 1.49 1.61 1.75 1.95 2.18 2.19 2.08 2.09 2.14 2.18 2.20 2.20 2.24 2.28 2.07 2.03 1.90 1.80 1.75 1.71 1.61 1.52 1.38 1.33 1.29 1.21 1.18 1.10 1.16 1.35 1.53 1.65 1.66 1.69 1.63 1.49 1.36